Location: Unspecified
(0.0000°N, 0.0000°E)
Time: 06:47:35
(UTC+00:00)

Tiros 1 despin weight - Pass Details

Date: 10 October 2023
Orbit: 583 x 627 km, 48.2° (Epoch: 05 December)

Event Time Altitude Azimuth Distance (km) Brightness Sun altitude
Rises 23:47:43 0° 333° (NNW) 2,796 - -83.2°
Reaches altitude 10° 23:50:05 10° 340° (NNW) 1,893 - -83.1°
Maximum altitude 23:54:11 42° 51° (NE) 836 - -82.9°
Drops below altitude 10° 23:58:17 10° 122° (ESE) 1,892 - -82.6°
Sets 00:00:38 0° 129° (SE) 2,794 - -82.4°
